Simultaneous Nadir Overpasses (SNOs) Predictions

Prediction of SNOs between AQUA and METOP-B Satellite Orbit:

Table of predicted SNOs for the next 14.0 days since TLE Epoch: 12/23/2016
Index Date (AQUA) Time (AQUA) Lat,Lon (AQUA) SZA (AQUA ) Date (METOP-B) Time (METOP-B) Lat,Lon (METOP-B) SZA (METOP-B ) Distance(km) Time Diff (sec)
1 12/23/2016 14:47:12 -73.65, 132.69 82.97 12/23/2016 14:46:22 -73.64, 132.59 82.96 3.16 50
2 12/23/2016 15:36:41 73.74, -59.87 97.13 12/23/2016 15:37:00 73.71, -59.91 97.11 3.21 19
3 12/26/2016 10:21:28 -73.70,-160.99 82.98 12/26/2016 10:20:43 -73.69,-160.89 82.99 3.35 45
4 12/26/2016 11:10:56 73.74, 6.56 97.07 12/26/2016 11:11:21 73.75, 6.60 97.08 1.82 25
5 12/29/2016 05:55:43 -73.66, -94.46 83.15 12/29/2016 05:55:06 -73.68, -94.50 83.13 2.65 37
6 12/29/2016 06:45:12 73.75, 72.97 96.95 12/29/2016 06:45:44 73.75, 72.98 96.94 0.97 32
7 01/01/2017 01:29:59 -73.68, -28.07 83.33 01/01/2017 01:29:29 -73.67, -28.11 83.33 1.61 30
8 01/01/2017 02:19:27 73.72, 139.48 96.72 01/01/2017 02:20:07 73.74, 139.37 96.73 3.74 40
9 01/03/2017 21:04:14 -73.71, 38.31 83.55 01/03/2017 21:03:50 -73.71, 38.39 83.54 2.47 24
10 01/03/2017 21:53:42 73.75,-154.15 96.50 01/03/2017 21:54:28 73.77,-154.13 96.52 2.35 46




NCC Satellite Simultaneous Nadir Overpasses (SNOs) Prediction Service
